When you browse on this site, cookies collect data to enhance your experience and personalize the content and advertising you see.
Visit our Privacy Policy to learn more. By continuing to use the site, you agree to this use of cookies and data.
  • In Lithuania
  • List of Countries
  • For 7 days
  • Water Temperature
  • Satellite Maps
  • Weather Map
  • Weather Widgets
  • user-avatar
    Login

    Hourly Weather Gar

    Today, 19 December, Wednesday

    Time Temperature Precipitation Wind Pressure Humidity
    00:00 -12°C° 0 mm 5 mps 747 mmHg 88%
    01:00 -12°C° 0.2 mm 5 mps 746 mmHg 88%
    02:00 -12°C° 0.2 mm 5 mps 746 mmHg 88%
    03:00 -12°C° 0.2 mm 6 mps 745 mmHg 88%
    04:00 -12°C° 0.2 mm 6 mps 745 mmHg 88%
    05:00 -12°C° 0.2 mm 6 mps 744 mmHg 88%
    06:00 -12°C° 0 mm 6 mps 744 mmHg 88%
    07:00 -12°C° 0.2 mm 6 mps 743 mmHg 88%
    08:00 -12°C° 0.2 mm 5 mps 743 mmHg 88%
    09:00 -12°C° 0.2 mm 5 mps 743 mmHg 89%
    10:00 -12°C° 0.4 mm 5 mps 742 mmHg 88%
    11:00 -12°C° 0.4 mm 5 mps 742 mmHg 88%
    12:00 -12°C° 0 mm 5 mps 742 mmHg 88%
    13:00 -12°C° 0.3 mm 5 mps 742 mmHg 88%
    14:00 -12°C° 0.3 mm 5 mps 742 mmHg 88%
    15:00 -12°C° 0.3 mm 5 mps 741 mmHg 88%
    16:00 -12°C° 0.2 mm 5 mps 741 mmHg 88%
    17:00 -12°C° 0.2 mm 5 mps 742 mmHg 88%
    18:00 -12°C° 0.2 mm 5 mps 742 mmHg 89%
    19:00 -11°C° 0.2 mm 4 mps 742 mmHg 89%
    20:00 -11°C° 0.2 mm 4 mps 742 mmHg 90%
    21:00 -11°C° 0.2 mm 4 mps 742 mmHg 90%
    22:00 -12°C° 0.1 mm 3 mps 743 mmHg 90%
    23:00 -14°C° 0.1 mm 3 mps 743 mmHg 90%

    Tomorrow, 20 December, Thursday

    Time Temperature Precipitation Wind Pressure Humidity
    00:00 -15°C° 0.1 mm 3 mps 743 mmHg 90%
    01:00 -17°C° 0 mm 3 mps 744 mmHg 90%
    02:00 -19°C° 0 mm 3 mps 745 mmHg 91%
    03:00 -22°C° 0 mm 3 mps 746 mmHg 92%
    04:00 -24°C° 0 mm 3 mps 747 mmHg 92%
    05:00 -26°C° 0 mm 3 mps 748 mmHg 92%
    06:00 -29°C° 0 mm 3 mps 748 mmHg 93%
    07:00 -31°C° 0 mm 3 mps 750 mmHg 93%
    08:00 -32°C° 0 mm 3 mps 751 mmHg 94%
    09:00 -33°C° 0 mm 3 mps 752 mmHg 94%
    10:00 -33°C° 0 mm 3 mps 752 mmHg 93%
    11:00 -33°C° 0 mm 3 mps 753 mmHg 92%
    12:00 -32°C° 0 mm 3 mps 754 mmHg 91%
    13:00 -33°C° 0 mm 3 mps 754 mmHg 91%
    14:00 -33°C° 0 mm 3 mps 755 mmHg 91%
    15:00 -34°C° 0 mm 4 mps 755 mmHg 92%
    16:00 -34°C° 0 mm 4 mps 756 mmHg 92%
    17:00 -34°C° 0 mm 4 mps 757 mmHg 92%
    18:00 -34°C° 0 mm 4 mps 757 mmHg 92%
    19:00 -34°C° 0 mm 4 mps 758 mmHg 92%
    20:00 -34°C° 0 mm 4 mps 758 mmHg 92%
    21:00 -34°C° 0 mm 4 mps 759 mmHg 91%
    22:00 -34°C° 0 mm 4 mps 759 mmHg 92%
    23:00 -34°C° 0 mm 4 mps 759 mmHg 92%

    Day after tomorrow, 21 December, Friday

    Time Temperature Precipitation Wind Pressure Humidity
    00:00 -34°C° 0 mm 4 mps 760 mmHg 92%
    01:00 -34°C° 0 mm 4 mps 760 mmHg 92%
    02:00 -33°C° 0 mm 4 mps 760 mmHg 93%
    03:00 -33°C° 0 mm 4 mps 760 mmHg 93%
    04:00 -33°C° 0 mm 4 mps 760 mmHg 93%
    05:00 -32°C° 0 mm 4 mps 760 mmHg 92%
    06:00 -32°C° 0 mm 5 mps 759 mmHg 92%
    07:00 -31°C° 0.1 mm 5 mps 759 mmHg 92%
    08:00 -29°C° 0.1 mm 5 mps 758 mmHg 91%
    09:00 -29°C° 0.1 mm 6 mps 757 mmHg 91%
    10:00 -27°C° 0.2 mm 6 mps 757 mmHg 90%
    11:00 -26°C° 0.2 mm 6 mps 756 mmHg 90%
    12:00 -23°C° 0.2 mm 6 mps 755 mmHg 89%
    13:00 -21°C° 0.2 mm 7 mps 754 mmHg 88%
    14:00 -20°C° 0.2 mm 7 mps 754 mmHg 87%
    15:00 -19°C° 0.2 mm 7 mps 753 mmHg 85%
    16:00 -19°C° 0.2 mm 7 mps 753 mmHg 85%
    17:00 -19°C° 0.2 mm 7 mps 753 mmHg 85%
    18:00 -19°C° 0.2 mm 8 mps 753 mmHg 84%
    19:00 -19°C° 0.2 mm 8 mps 752 mmHg 84%
    20:00 -19°C° 0.2 mm 8 mps 752 mmHg 84%
    21:00 -19°C° 0.2 mm 8 mps 752 mmHg 84%
    22:00 -19°C° 0.1 mm 7 mps 751 mmHg 84%
    23:00 -19°C° 0.1 mm 7 mps 751 mmHg 84%

    22 December, Saturday

    Time Temperature Precipitation Wind Pressure Humidity
    00:00 -19°C° 0.1 mm 7 mps 751 mmHg 84%
    01:00 -19°C° 0.2 mm 7 mps 750 mmHg 84%
    02:00 -19°C° 0.2 mm 7 mps 750 mmHg 85%
    03:00 -19°C° 0.2 mm 7 mps 750 mmHg 85%
    04:00 -19°C° 0.2 mm 7 mps 750 mmHg 86%
    05:00 -20°C° 0.2 mm 6 mps 750 mmHg 86%
    06:00 -20°C° 0.2 mm 6 mps 749 mmHg 87%
    07:00 -20°C° 0.2 mm 6 mps 750 mmHg 87%
    08:00 -20°C° 0.2 mm 6 mps 750 mmHg 88%
    09:00 -21°C° 0.2 mm 6 mps 750 mmHg 88%
    10:00 -20°C° 0.2 mm 5 mps 750 mmHg 88%
    11:00 -20°C° 0.2 mm 5 mps 750 mmHg 88%
    12:00 -20°C° 0.2 mm 5 mps 751 mmHg 89%
    13:00 -20°C° 0.2 mm 5 mps 751 mmHg 89%
    14:00 -20°C° 0.2 mm 5 mps 751 mmHg 89%
    15:00 -19°C° 0.2 mm 4 mps 752 mmHg 89%
    16:00 -19°C° 0.2 mm 4 mps 752 mmHg 90%
    17:00 -20°C° 0.2 mm 4 mps 752 mmHg 91%
    18:00 -19°C° 0.2 mm 3 mps 753 mmHg 92%
    19:00 -21°C° 0.1 mm 3 mps 753 mmHg 93%
    20:00 -22°C° 0.1 mm 3 mps 754 mmHg 94%
    21:00 -21°C° 0.1 mm 2 mps 754 mmHg 95%
    22:00 -23°C° 0.1 mm 2 mps 755 mmHg 95%
    23:00 -25°C° 0.1 mm 2 mps 755 mmHg 94%

    23 December, Sunday

    Time Temperature Precipitation Wind Pressure Humidity
    00:00 -27°C° 0.1 mm 2 mps 755 mmHg 94%
    01:00 -29°C° 0.1 mm 2 mps 756 mmHg 93%
    02:00 -31°C° 0.1 mm 2 mps 756 mmHg 92%
    03:00 -34°C° 0.1 mm 2 mps 756 mmHg 91%
    04:00 -35°C° 0 mm 2 mps 757 mmHg 91%
    05:00 -37°C° 0 mm 2 mps 758 mmHg 91%
    06:00 -38°C° 0 mm 2 mps 758 mmHg 90%
    07:00 -39°C° 0 mm 2 mps 759 mmHg 91%
    08:00 -40°C° 0 mm 2 mps 759 mmHg 91%
    09:00 -41°C° 0 mm 2 mps 760 mmHg 91%
    10:00 -40°C° 0 mm 2 mps 761 mmHg 90%
    11:00 -38°C° 0 mm 2 mps 761 mmHg 89%
    12:00 -37°C° 0 mm 2 mps 762 mmHg 88%
    13:00 -38°C° 0 mm 2 mps 762 mmHg 89%
    14:00 -38°C° 0 mm 2 mps 763 mmHg 90%
    15:00 -38°C° 0 mm 2 mps 763 mmHg 91%
    16:00 -39°C° 0 mm 2 mps 764 mmHg 92%
    17:00 -40°C° 0 mm 2 mps 765 mmHg 92%
    18:00 -40°C° 0 mm 2 mps 766 mmHg 92%
    19:00 -41°C° 0 mm 2 mps 766 mmHg 92%
    20:00 -41°C° 0 mm 2 mps 767 mmHg 91%
    21:00 -38°C° 0 mm 1 mps 768 mmHg 91%
    22:00 -38°C° 0 mm 1 mps 768 mmHg 90%
    23:00 -38°C° 0 mm 1 mps 769 mmHg 89%

    24 December, Monday

    Time Temperature Precipitation Wind Pressure Humidity
    00:00 -38°C° 0 mm 1 mps 769 mmHg 88%
    01:00 -38°C° 0 mm 1 mps 770 mmHg 88%
    02:00 -38°C° 0 mm 1 mps 770 mmHg 87%
    03:00 -38°C° 0 mm 1 mps 770 mmHg 87%
    04:00 -38°C° 0 mm 1 mps 771 mmHg 87%
    05:00 -38°C° 0 mm 1 mps 771 mmHg 87%
    06:00 -38°C° 0 mm 1 mps 772 mmHg 86%
    07:00 -37°C° 0 mm 1 mps 772 mmHg 86%
    08:00 -36°C° 0 mm 0 mps 773 mmHg 86%
    09:00 -36°C° 0 mm 0 mps 773 mmHg 86%
    10:00 -35°C° 0 mm 0 mps 773 mmHg 85%
    11:00 -33°C° 0 mm 0 mps 774 mmHg 84%
    12:00 -31°C° 0 mm 0 mps 774 mmHg 82%
    13:00 -31°C° 0 mm 0 mps 774 mmHg 85%
    14:00 -32°C° 0 mm 0 mps 774 mmHg 87%
    15:00 -32°C° 0 mm 0 mps 774 mmHg 89%
    16:00 -33°C° 0 mm 0 mps 774 mmHg 89%
    17:00 -33°C° 0 mm 0 mps 774 mmHg 89%
    18:00 -34°C° 0 mm 0 mps 775 mmHg 89%
    19:00 -34°C° 0 mm 0 mps 775 mmHg 89%
    20:00 -34°C° 0 mm 0 mps 775 mmHg 88%
    21:00 -34°C° 0 mm 0 mps 775 mmHg 88%
    22:00 -34°C° 0 mm 0 mps 775 mmHg 88%
    23:00 -34°C° 0 mm 0 mps 775 mmHg 88%
    Show more